sat.trackr.live / text

‹ back to catalog

STARLINK-31378

NORAD 58932 · 2024-027B

PAYLOAD ACTIVE UNKNOWN

§ Identity

Operator
Country
US
Launch date
2024-02-10
Launch site
AFWTR
Launch vehicle
Mass (kg)
RCS (m²)

Purposes: comms

External: N2YO · Heavens-Above · Gunter

§ Orbital elements

Epoch: 2026-05-24T18:45:50.558688Z

Period
94.01 min
Inclination
53.1612°
Eccentricity
0.0001304
Mean motion
15.31701492 rev/d
Perigee alt
469.8 km
Apogee alt
471.6 km
Semi-major
6,848.9 km
B*
1.9725e-5
RAAN
315.8123°
Arg perigee
89.7447°
Mean anomaly
270.3703°
Rev number
12,898

§ Raw data

STARLINK-313781 58932U 24027B   26144.78183517  .00000247  00000+0  19725-4 0  99992 58932  53.1612 315.8123 0001304  89.7447 270.3703 15.31701492128980

JSON: /api/v1/satellites/58932 · /tle

For live sub-satellite position, see the globe view (requires WebGL).

§ Visibility from observer

Set your observer location to see the next 7 days of passes ≥ 10°. The values pass through the URL so the page stays shareable.

No JS? Fill the form by hand. The geolocation button needs JavaScript.